TimeGMT,TemperatureF,Dew PointF,Humidity,Sea Level PressureIn,VisibilityMPH,Wind Direction,Wind SpeedMPH,Gust SpeedMPH,PrecipitationIn,Events,Conditions,WindDirDegrees,DateUTC
12:00 AM,41,36,77,29.57,16,SSW,11.2,,,,Scattered Clouds,200,2014-01-13 00:00:00
12:00 AM,41.0,35.6,81,29.56,6.2,SSW,10.4,-,N/A,,Partly Cloudy,200,2014-01-13 00:00:00
12:30 AM,39.2,35.6,87,29.56,6.2,SSW,8.1,-,N/A,,Partly Cloudy,200,2014-01-13 00:30:00
1:00 AM,38,35,86,29.57,16,SSW,8.9,,,,Scattered Clouds,200,2014-01-13 01:00:00
1:00 AM,39.2,35.6,87,29.56,6.2,SSW,8.1,-,N/A,,Partly Cloudy,200,2014-01-13 01:00:00
1:30 AM,41.0,35.6,81,29.56,6.2,SSW,8.1,-,N/A,,Partly Cloudy,200,2014-01-13 01:30:00
2:00 AM,40,35,78,29.57,12,SSW,11.2,,,,Scattered Clouds,210,2014-01-13 02:00:00
2:00 AM,39.2,35.6,87,29.56,6.2,SSW,10.4,-,N/A,,Partly Cloudy,210,2014-01-13 02:00:00
2:30 AM,39.2,35.6,87,29.56,6.2,SSW,9.2,-,N/A,,Partly Cloudy,210,2014-01-13 02:30:00
3:00 AM,39,34,77,29.58,12,SSW,8.9,,,,Scattered Clouds,210,2014-01-13 03:00:00
3:00 AM,39.2,33.8,81,29.56,6.2,SSW,8.1,-,N/A,,Partly Cloudy,210,2014-01-13 03:00:00
3:30 AM,39.2,33.8,81,29.56,6.2,SSW,9.2,-,N/A,,Partly Cloudy,210,2014-01-13 03:30:00
4:00 AM,37,33,81,29.57,12,SSW,8.9,,,,Scattered Clouds,200,2014-01-13 04:00:00
4:00 AM,37.4,33.8,87,29.56,6.2,SSW,9.2,-,N/A,,Partly Cloudy,200,2014-01-13 04:00:00
4:30 AM,37.4,33.8,87,29.53,6.2,SSW,9.2,-,N/A,,Partly Cloudy,200,2014-01-13 04:30:00
5:00 AM,36,33,84,29.56,12,South,8.9,,,,Scattered Clouds,190,2014-01-13 05:00:00
5:00 AM,37.4,33.8,87,29.53,6.2,South,9.2,-,N/A,,Partly Cloudy,190,2014-01-13 05:00:00
5:30 AM,37.4,33.8,87,29.53,6.2,South,8.1,-,N/A,,Partly Cloudy,190,2014-01-13 05:30:00
6:00 AM,36,32,80,29.55,12,SSE,6.7,,,,Scattered Clouds,150,2014-01-13 06:00:00
6:00 AM,37.4,32.0,81,29.53,6.2,SSE,6.9,-,N/A,,Partly Cloudy,160,2014-01-13 06:00:00
6:30 AM,35.6,32.0,87,29.50,6.2,SSE,8.1,-,N/A,,Partly Cloudy,160,2014-01-13 06:30:00
7:00 AM,38,31,68,29.52,12,SE,11.2,,,,Scattered Clouds,140,2014-01-13 07:00:00
7:00 AM,37.4,32.0,81,29.50,6.2,SE,9.2,-,N/A,,Partly Cloudy,140,2014-01-13 07:00:00
7:30 AM,37.4,32.0,81,29.50,6.2,SE,8.1,-,N/A,,Scattered Clouds,130,2014-01-13 07:30:00
8:00 AM,39,35,80,29.50,12,SE,15.7,,,,Partly Cloudy,130,2014-01-13 08:00:00
8:00 AM,39.2,35.6,87,29.47,6.2,SE,15.0,-,N/A,,Mostly Cloudy,130,2014-01-13 08:00:00
8:30 AM,39.2,35.6,87,29.47,6.2,SE,13.8,-,N/A,Rain,Light Rain Showers,140,2014-01-13 08:30:00
9:00 AM,41,37,80,29.50,11,South,11.2,,,Rain,Light Rain Showers,170,2014-01-13 09:00:00
9:00 AM,41.0,37.4,87,29.47,6.2,South,12.7,-,N/A,Rain,Light Rain Showers,170,2014-01-13 09:00:00
9:30 AM,41.0,35.6,81,29.47,6.2,South,12.7,-,N/A,,Mostly Cloudy,170,2014-01-13 09:30:00
10:00 AM,40,36,78,29.48,16,SSE,8.9,,,Rain,Light Rain Showers,160,2014-01-13 10:00:00
10:00 AM,39.2,35.6,87,29.44,6.2,SSE,10.4,-,N/A,,Mostly Cloudy,160,2014-01-13 10:00:00
10:30 AM,41.0,35.6,81,29.44,6.2,South,9.2,-,N/A,,Mostly Cloudy,180,2014-01-13 10:30:00
11:00 AM,42,37,76,29.46,16,South,11.2,,,Rain,Light Rain Showers,180,2014-01-13 11:00:00
11:00 AM,42.8,37.4,81,29.44,6.2,South,10.4,-,N/A,,Mostly Cloudy,190,2014-01-13 11:00:00
11:30 AM,42.8,37.4,81,29.42,6.2,South,8.1,-,N/A,,Mostly Cloudy,170,2014-01-13 11:30:00
12:00 PM,43,37,72,29.44,25,SE,6.7,,,,Partly Cloudy,130,2014-01-13 12:00:00
12:00 PM,42.8,37.4,81,29.42,6.2,SE,4.6,-,N/A,,Mostly Cloudy,130,2014-01-13 12:00:00
12:30 PM,42.8,37.4,81,29.42,6.2,ESE,4.6,-,N/A,,Mostly Cloudy,120,2014-01-13 12:30:00
1:00 PM,42.8,37.4,81,29.42,6.2,Variable,2.3,-,N/A,,Mostly Cloudy,0,2014-01-13 13:00:00
1:30 PM,44.6,37.4,76,29.42,6.2,WSW,8.1,-,N/A,,Mostly Cloudy,240,2014-01-13 13:30:00
2:00 PM,43,38,74,29.42,31,WSW,8.9,,,,Scattered Clouds,240,2014-01-13 14:00:00
2:00 PM,42.8,37.4,81,29.39,6.2,WSW,9.2,-,N/A,,Mostly Cloudy,250,2014-01-13 14:00:00
2:30 PM,42.8,37.4,81,29.39,6.2,WSW,9.2,-,N/A,,Mostly Cloudy,250,2014-01-13 14:30:00
3:00 PM,42,36,73,29.42,31,WSW,8.9,,,,Scattered Clouds,250,2014-01-13 15:00:00
3:00 PM,42.8,35.6,76,29.42,6.2,WSW,9.2,-,N/A,,Mostly Cloudy,250,2014-01-13 15:00:00
3:30 PM,42.8,37.4,81,29.42,6.2,WSW,9.2,-,N/A,,Mostly Cloudy,250,2014-01-13 15:30:00
4:00 PM,42,37,75,29.43,25,West,8.9,,,,Scattered Clouds,260,2014-01-13 16:00:00
4:00 PM,42.8,37.4,81,29.42,6.2,West,10.4,-,N/A,,Mostly Cloudy,260,2014-01-13 16:00:00
4:30 PM,39.2,35.6,87,29.42,6.2,West,6.9,-,N/A,,Mostly Cloudy,270,2014-01-13 16:30:00
5:00 PM,38,35,85,29.44,25,West,6.7,,,,Scattered Clouds,270,2014-01-13 17:00:00
5:00 PM,37.4,33.8,87,29.42,6.2,West,6.9,-,N/A,,Mostly Cloudy,280,2014-01-13 17:00:00
5:30 PM,39.2,35.6,87,29.42,6.2,West,9.2,-,N/A,,Scattered Clouds,260,2014-01-13 17:30:00
6:00 PM,37,35,87,29.45,19,West,11.2,,,,Scattered Clouds,270,2014-01-13 18:00:00
6:00 PM,37.4,33.8,87,29.44,6.2,West,10.4,-,N/A,,Scattered Clouds,260,2014-01-13 18:00:00
6:30 PM,37.4,33.8,87,29.44,6.2,West,10.4,-,N/A,,Scattered Clouds,260,2014-01-13 18:30:00
7:00 PM,36,34,87,29.47,19,West,11.2,,,,Scattered Clouds,260,2014-01-13 19:00:00
7:00 PM,37.4,33.8,87,29.44,6.2,West,11.5,-,N/A,,Partly Cloudy,260,2014-01-13 19:00:00
7:30 PM,35.6,33.8,93,29.44,6.2,West,10.4,-,N/A,,Partly Cloudy,260,2014-01-13 19:30:00
8:00 PM,35,33,91,29.49,16,West,13.4,,,,Scattered Clouds,260,2014-01-13 20:00:00
8:00 PM,35.6,33.8,93,29.47,6.2,West,12.7,-,N/A,,Partly Cloudy,260,2014-01-13 20:00:00
8:30 PM,35.6,33.8,93,29.47,6.2,West,12.7,-,N/A,,Partly Cloudy,260,2014-01-13 20:30:00
9:00 PM,35,33,89,29.50,12,West,13.4,,,,Scattered Clouds,260,2014-01-13 21:00:00
9:00 PM,33.8,32.0,93,29.47,6.2,West,13.8,-,N/A,,Partly Cloudy,260,2014-01-13 21:00:00
9:30 PM,33.8,32.0,93,29.47,6.2,West,13.8,-,N/A,,Partly Cloudy,260,2014-01-13 21:30:00
10:00 PM,33,32,95,29.52,19,West,13.4,,,,Scattered Clouds,260,2014-01-13 22:00:00
10:00 PM,33.8,32.0,93,29.47,6.2,West,13.8,-,N/A,,Partly Cloudy,260,2014-01-13 22:00:00
10:30 PM,33.8,32.0,93,29.50,6.2,WSW,13.8,-,N/A,,Partly Cloudy,250,2014-01-13 22:30:00
11:00 PM,33,32,93,29.54,19,West,13.4,,,,Scattered Clouds,260,2014-01-13 23:00:00
11:00 PM,32.0,32.0,100,29.50,6.2,West,13.8,-,N/A,,Partly Cloudy,260,2014-01-13 23:00:00
11:30 PM,33.8,32.0,93,29.50,6.2,WSW,15.0,-,N/A,,Partly Cloudy,250,2014-01-13 23:30:00